Regional Weather Roundup
Issued by NWS

Home | Current Version | Previous Version | Graphics & Text | Print | Product List | Glossary On
Versions: 1 2 3 4 5 6 7 8 9 10 11 12 13 14 15 16 17 18 19 20 21 22 23 24 25 26 27 28 29 30 31 32 33 34 35 36 37 38 39 40 41 42 43 44 45 46 47 48 49 50
031
ASUS43 KIND 231909
RWRIN

WEATHER ROUNDUP FOR INDIANA
NATIONAL WEATHER SERVICE INDIANAPOLIS IN
200 PM EST MON JAN 23 2017

NOTE: "FAIR" INDICATES FEW OR NO CLOUDS BELOW 12,000 FEET WITH NO
SIGNIFICANT WEATHER AND/OR OBSTRUCTIONS TO VISIBILITY.

* - STATION DOES NOT REPORT WEATHER SUCH AS PRECIPITATION OR FOG.

+ - STATION NOT QUALITY CONTROLLED BY THE NATIONAL WEATHER SERVICE.
    USE DATA WITH CAUTION...ESPECIALLY DEWPOINT AND RELATIVE
    HUMIDITY OBSERVATIONS.

INZ001>003-010>013-019-020-232000-
NORTHWEST INDIANA

CITY           SKY/WX    TMP DP  RH WIND       PRES   REMARKS
GARY /AIRPORT/ CLOUDY    39  37  93 NW14      29.75F FOG
KNOX *+        CLOUDY    37  28  70 N15       29.70S
LA PORTE +     CLOUDY    38  37  95 N14G20    29.71S
MICHIGAN CITY+ CLOUDY    37  37 100 N12G17    29.72F
MONTICELLO +   CLOUDY    40  37  88 NW14      29.68F
RENSSELAER +   CLOUDY    41  37  87 NW13G21   29.71F
VALPARAISO     CLOUDY    40  38  93 N12       29.71F

$$

LMZ046-743>745-232000-
SOUTHERN LAKE MICHIGAN

STATION/POSITION TIME  TEMP    WIND        PRES    WAVE
                       AIR SEA DIR/SP/G            HT
                 (UTC) (F)     (DEG/KT/KT) (MB)    (FT)
BURNS HARBOR     1840   36     320/  7/  9 1007.8F
MICHIGAN CITY    1840   37     330/ 10/ 11   N/A

$$

INZ004-005-014>016-021>024-232000-
NORTH CENTRAL INDIANA

CITY           SKY/WX    TMP DP  RH WIND       PRES   REMARKS
ELKHART        CLOUDY    39  37  93 N10       29.68F
GOSHEN         CLOUDY    42  39  89 N9        29.66F FOG
LOGANSPORT +   CLOUDY    41  37  87 NW12      29.68S
PERU/GRISSOM   CLOUDY    41  41 100 NW14      29.65S
ROCHESTER +    CLOUDY    43  41  93 N10       29.68S FOG
SOUTH BEND     CLOUDY    39  38  96 NW15      29.69F FOG
WARSAW +       DRIZZLE   41  41 100 N10       29.66F

$$

INZ006>009-017-018-025>027-232000-
NORTHEAST INDIANA

CITY           SKY/WX    TMP DP  RH WIND       PRES   REMARKS
ANGOLA *+      CLOUDY    41  30  65 N5        29.64F
AUBURN +       DRIZZLE   43  41  93 N8        29.64F
FORT WAYNE     LGT RAIN  45  43  93 N12       29.63F FOG
HUNTINGTON +   CLOUDY    43  42  96 N9        29.63F FOG
KENDALLVILLE + CLOUDY    42  42 100 N7        29.64F FOG

$$

INZ028-029-035-036-043>045-051>053-232000-
WEST CENTRAL INDIANA

CITY           SKY/WX    TMP DP  RH WIND       PRES   REMARKS
CRAWFORDSVL +  CLOUDY    39  39 100 NW14      29.68F
GREENCASTLE +  CLOUDY    39  37  93 NW13G18   29.67F FOG
LAFAYETTE      CLOUDY    41  38  89 NW13G23   29.69F
TERRE HAUTE    CLOUDY    42  36  79 N15G22    29.70F

$$

INZ030>032-037>040-046>048-054>057-064-065-232000-
CENTRAL INDIANA

CITY           SKY/WX    TMP DP  RH WIND       PRES   REMARKS
ANDERSON       DRIZZLE   45  45 100 NW12      29.62F
CP ATTERBURY + CLOUDY    43  41  93 NW15G21   29.64R
COLUMBUS       CLOUDY    45  45 100 NW16      29.62F
FRANKFORT +    CLOUDY    43  41  92 N12G17    29.69S FOG
GREENWOOD *+   CLOUDY    43  43  99 NW12G18   29.64S
INDIANAPOLIS   CLOUDY    42  40  92 NW18G25   29.65S FOG
-EAGLE CREEK   CLOUDY    42  39  89 N17       29.64F
KOKOMO +       CLOUDY    41  40  96 NW15      29.66S FOG
MARION +       CLOUDY    43  43 100 N10       29.64S FOG
MT COMFORT *+  CLOUDY    43  41  93 N16       29.63F
SHELBYVILLE    CLOUDY    46  42  86 N17       29.60F FOG
ZIONSVILLE +   CLOUDY    40  39  99 N14       29.66S FOG

$$

INZ033-034-041-042-049-050-058-059-232000-
EAST CENTRAL INDIANA

CITY           SKY/WX    TMP DP  RH WIND       PRES   REMARKS
MUNCIE         CLOUDY    47  44  90 N13       29.61F FOG

$$

INZ060-061-067>069-081>083-085>088-232000-
SOUTHWEST INDIANA

CITY           SKY/WX    TMP DP  RH WIND       PRES   REMARKS
EVANSVILLE     CLOUDY    44  36  73 NW10G21   29.72S
HUNTINGBURG *+ CLOUDY    43  39  86 NW13G22   29.67F
WASHINGTON +   CLOUDY    43  39  86 NW17      29.67F

$$

INZ062-063-066-070>080-084-089>092-232000-
SOUTH CENTRAL AND SOUTHEAST INDIANA

CITY           SKY/WX    TMP DP  RH WIND       PRES   REMARKS
BLOOMINGTON    CLOUDY    42  38  85 VRB6      29.65S
MADISON *+     CLOUDY    45  43  93 NW12G20   29.60S
NORTH VERNON + CLOUDY   N/A N/A N/A NW16G23   29.60F FOG
SEYMOUR +      CLOUDY    48  43  81 NW18      29.61F

$$





USA.gov is the U.S. government's official web portal to all federal, state and local government web resources and services.